Regional Weather Roundup
Issued by NWS

Home | Current Version | Previous Version | Graphics & Text | Print | Product List | Glossary On
Versions: 1 2 3 4 5 6 7 8 9 10 11 12 13 14 15 16 17 18 19 20 21 22 23 24 25 26 27 28 29 30 31 32 33 34 35 36 37 38 39 40 41 42 43 44 45 46 47 48 49 50
000
ASUS45 KBOI 051410
RWRID
WEATHER ROUNDUP FOR IDAHO
NATIONAL WEATHER SERVICE BOISE ID
700 AM MST THU MAR 05 2015

NOTE: "FAIR" INDICATES FEW OR NO CLOUDS BELOW 12000 FEET
WITH NO SIGNIFICANT WEATHER AND/OR OBSTRUCTIONS TO VISIBILITY

IDZ012-014-051500-
SOUTHWEST IDAHO


CITY           SKY/WX    TMP DP  RH WIND       PRES   REMARKS
BOISE          CLEAR     28  16  60 SE7       30.37R WCI  21
CALDWELL       CLEAR     21   9  58 CALM      30.40R
MOUNTAIN HOME  PTCLDY    19  11  70 E8        30.37R WCI   9
$$

IDZ016-017-051500-
SOUTHCENTRAL IDAHO


CITY           SKY/WX    TMP DP  RH WIND       PRES   REMARKS
JEROME         PTCLDY    22  11  62 E6        30.36R WCI  14
TWIN FALLS     PTCLDY    27  13  55 S10       30.34S WCI  17
$$

IDZ019>023-051500-
SOUTHEAST IDAHO


CITY           SKY/WX    TMP DP  RH WIND       PRES   REMARKS
IDAHO FALLS    PTCLDY    18  12  77 CALM      30.36R
POCATELLO      CLEAR     21  15  78 CALM      30.36R
REXBURG        PTCLDY    18   9  68 S6        30.35R WCI  10
$$

IDZ006-010-011-018-031-032-051500-
CENTRAL IDAHO MOUNTAINS


CITY           SKY/WX    TMP DP  RH WIND       PRES   REMARKS
MCCALL         MOCLDY    15   8  73 CALM      30.31R
HAILEY         PTCLDY    21  10  63 NW7       30.33R WCI  13
STANLEY          N/A      2  -4  76 CALM      30.35R
SALMON         MOCLDY    16  12  86 CALM      30.36R
CHALLIS        MOCLDY    18  10  71 CALM      30.32R
$$

IDZ002-004-006-007-026-051500-
NORTHERN IDAHO


CITY           SKY/WX    TMP DP  RH WIND       PRES   REMARKS
LEWISTON       MOCLDY    27  19  72 CALM      30.33S
LOWELL           N/A     25  19  78 N6        30.45R WCI  18
COEUR D`ALENE  PTCLDY    21  14  73 E5        30.29R WCI  15
MULLAN PASS    PTCLDY    23   1  38 SW8       30.17S WCI  14
$$


USA.gov is the U.S. government's official web portal to all federal, state and local government web resources and services.